sat.trackr.live / text

‹ back to catalog

STARLINK-11460 [DTC]

NORAD 62069 · 2024-217N

PAYLOAD ACTIVE UNKNOWN

§ Identity

Operator
Country
US
Launch date
2024-11-24
Launch site
AFWTR
Launch vehicle
Mass (kg)
RCS (m²)

Purposes: comms

External: N2YO · Heavens-Above · Gunter

§ Orbital elements

Epoch: 2026-09-21T05:52:59.179296Z

Period
91.74 min
Inclination
53.1569°
Eccentricity
0.0001245
Mean motion
15.69738833 rev/d
Perigee alt
358.8 km
Apogee alt
360.5 km
Semi-major
6,737.8 km
B*
9.5025e-4
RAAN
187.5353°
Arg perigee
126.1487°
Mean anomaly
233.9646°
Rev number
10,582

§ Raw data

STARLINK-11460 [DTC]1 62069U 24217N   26264.24512939  .00116299  00000+0  95025-3 0  99952 62069  53.1569 187.5353 0001245 126.1487 233.9646 15.69738833105829

JSON: /api/v1/satellites/62069 · /tle

For live sub-satellite position, see the globe view (requires WebGL).

§ Visibility from observer

Set your observer location to see the next 7 days of passes ≥ 10°. The values pass through the URL so the page stays shareable.

No JS? Fill the form by hand. The geolocation button needs JavaScript.